Tracking 19638 objects as of 20-Apr-2019
HD Live streaming from Space Station
objects crossing your sky now

COSMOS 1823 DEB

Track COSMOS 1823 DEB now!
10-day predictions


NORAD ID: 39814
Int'l Code: 1987-020EN
Perigee: 1,482.1 km
Apogee: 1,521.9 km
Inclination: 73.6 °
Period: 115.9 minutes
Semi major axis: 7872 km
RCS: 0.0157 m2 (small)
Launch date: February 20, 1987
Source: Commonwealth of Independent States (former USSR) (CIS)
Launch site: PLESETSK MISSILE AND SPACE COMPLEX (PKMTR)

Note: This is SATELLITE DEBRIS
aabbcc
Your satellite tracking list
Your tracking list is empty




NASA's NSSDC Master Catalog

Two Line Element Set (TLE):
1 39814U 87020EN  19096.98755642 +.00000009 +00000-0 +18774-3 0  9992
2 39814 073.6175 315.1527 0025304 005.8768 354.2568 12.42780987650965
Source of the keplerian elements: AFSPC